O'Neill, NE

4:21 PM CST on January 17, 2018 (GMT -0600)
The O'Neill Municipal-Baker

Weather History for KONL - October, 2013

Change the Weather History Date:

Saturday, October 5, 2013

  Actual Average Record
Temperature  
Mean Temperature 39 °F -  
Max Temperature 42 °F 68 °F 90 °F (1963)
Min Temperature 37 °F 42 °F 25 °F (2012)
Degree Days  
Heating Degree Days 26    
Moisture  
Dew Point 34 °F    
Average Humidity 81    
Maximum Humidity 90    
Minimum Humidity 72    
Precipitation  
Precipitation 0.17 in - - ()
Sea Level Pressure  
Sea Level Pressure 29.77 in    
Wind  
Wind Speed 21 mph (West)    
Max Wind Speed 30 mph    
Max Gust Speed 40 mph    
Visibility 8 miles    
Events Rain    
Averages and records for this station are not official NWS values.
T = Trace of Precipitation, MM = Missing Value Source: NWS Daily Summary

Daily Weather History Graph

Daily Weather History Graph

Search for Another Location

Airport or City:

Trip Planner

Search our weather history database for the weather conditions in past years. The results will help you decide how hot, cold, wet, or windy it might be!

Date:

Astronomy

Oct. 05, 2013 Rise Set
Actual Time 7:36 AM CDT 7:08 PM CDT
Civil Twilight 7:08 AM CDT 7:36 PM CDT
Nautical Twilight 6:35 AM CDT 8:09 PM CDT
Astronomical Twilight 6:03 AM CDT 8:42 PM CDT
Moon 8:19 AM CDT (10/5) 7:26 PM CDT (10/5)
Length of Visible Light 12h 28m
Length of Day
11h 32m
New Moon, 1% of the Moon is Illuminated
Oct 5
New Moon
Oct 11
First Quarter
Oct 18
Full
Oct 26
Last Quarter
Nov 3
New

Hourly Weather History & Observations

Time (CDT) Temp. Windchill Dew Point Humidity Pressure Visibility Wind Dir Wind Speed Gust Speed Precip Events Conditions
12:15 AM 39.2 °F 29.6 °F 31.1 °F 73% 29.78 in 10.0 mi WSW 19.6 mph 32.2 mph N/A   Overcast
12:35 AM 39.2 °F 28.3 °F 30.9 °F 72% 29.78 in 10.0 mi WSW 25.3 mph 29.9 mph N/A   Overcast
12:55 AM 39.2 °F 29.0 °F 30.9 °F 72% 29.78 in 10.0 mi WSW 21.9 mph 27.6 mph N/A   Overcast
1:15 AM 39.2 °F 28.7 °F 30.7 °F 72% 29.79 in 10.0 mi WSW 23.0 mph 33.4 mph N/A   Overcast
1:35 AM 39.0 °F 29.0 °F 30.9 °F 73% 29.78 in 10.0 mi WSW 20.7 mph 31.1 mph N/A   Overcast
1:55 AM 38.8 °F 29.1 °F 30.9 °F 73% 29.78 in 10.0 mi SW 19.6 mph 33.4 mph N/A   Overcast
2:15 AM 38.8 °F 29.1 °F 31.3 °F 74% 29.78 in 10.0 mi WSW 19.6 mph 27.6 mph N/A   Overcast
2:35 AM 38.8 °F 29.1 °F 31.3 °F 74% 29.78 in 10.0 mi SW 19.6 mph 29.9 mph N/A   Overcast
2:55 AM 38.7 °F 28.8 °F 31.5 °F 75% 29.77 in 10.0 mi SW 19.6 mph 29.9 mph N/A   Overcast
3:15 AM 38.3 °F 27.8 °F 31.1 °F 75% 29.76 in 10.0 mi WSW 21.9 mph 28.8 mph N/A   Overcast
3:35 AM 38.3 °F 27.3 °F 31.1 °F 75% 29.75 in 10.0 mi WSW 24.2 mph 29.9 mph N/A   Overcast
3:55 AM 38.3 °F 28.4 °F 31.6 °F 77% 29.75 in 10.0 mi WSW 19.6 mph 33.4 mph N/A   Overcast
4:15 AM 38.5 °F 28.9 °F 31.3 °F 75% 29.76 in 10.0 mi WSW 18.4 mph 33.4 mph N/A   Overcast
4:35 AM 38.3 °F 27.8 °F 31.1 °F 75% 29.75 in 10.0 mi WSW 21.9 mph 31.1 mph N/A   Overcast
4:55 AM 38.5 °F 28.9 °F 31.1 °F 75% 29.75 in 10.0 mi WSW 18.4 mph 31.1 mph N/A   Overcast
5:15 AM 38.5 °F 28.3 °F 31.1 °F 75% 29.74 in 10.0 mi WSW 20.7 mph 32.2 mph N/A   Overcast
5:35 AM 38.5 °F 27.1 °F 31.1 °F 75% 29.74 in 10.0 mi WSW 26.5 mph 31.1 mph N/A   Overcast
5:55 AM 38.5 °F 28.1 °F 31.1 °F 75% 29.74 in 10.0 mi WSW 21.9 mph 31.1 mph N/A   Overcast
6:15 AM 38.3 °F 28.1 °F 32.0 °F 78% 29.74 in 10.0 mi WSW 20.7 mph 33.4 mph N/A   Overcast
6:35 AM 37.9 °F 27.6 °F 32.0 °F 79% 29.74 in 10.0 mi WSW 20.7 mph 29.9 mph N/A   Overcast
6:55 AM 37.8 °F 27.1 °F 32.0 °F 80% 29.74 in 10.0 mi WSW 21.9 mph 26.5 mph N/A   Overcast
7:15 AM 37.9 °F 27.9 °F 32.0 °F 79% 29.74 in 10.0 mi WSW 19.6 mph 28.8 mph N/A   Overcast
7:35 AM 37.4 °F 27.2 °F 32.4 °F 82% 29.74 in 10.0 mi West 19.6 mph 32.2 mph N/A   Overcast
7:55 AM 37.6 °F 28.1 °F 32.5 °F 82% 29.74 in 10.0 mi WSW 17.3 mph 26.5 mph N/A   Overcast
8:15 AM 37.8 °F 29.4 °F 32.9 °F 83% 29.75 in 7.0 mi WSW 13.8 mph 24.2 mph N/A   Overcast
8:35 AM 37.8 °F 28.3 °F 33.8 °F 86% 29.75 in 4.0 mi WSW 17.3 mph 24.2 mph N/A   Overcast
8:55 AM 38.5 °F 28.9 °F 32.9 °F 80% 29.75 in 10.0 mi West 18.4 mph 28.8 mph N/A   Overcast
9:15 AM 39.4 °F 29.5 °F 32.9 °F 78% 29.75 in 10.0 mi West 20.7 mph 31.1 mph N/A   Overcast
9:35 AM 39.6 °F 28.7 °F 32.9 °F 77% 29.75 in 10.0 mi West 25.3 mph 34.5 mph N/A   Overcast
9:55 AM 39.2 °F 29.6 °F 32.9 °F 78% 29.75 in 10.0 mi West 19.6 mph 29.9 mph N/A   Overcast
10:15 AM 39.4 °F 29.8 °F 33.1 °F 78% 29.75 in 10.0 mi West 19.6 mph 32.2 mph N/A   Overcast
10:35 AM 40.1 °F 29.5 °F 34.3 °F 80% 29.76 in 5.0 mi West 25.3 mph 35.7 mph N/A   Haze
10:55 AM 39.9 °F 30.5 °F 33.6 °F 78% 29.76 in 10.0 mi West 19.6 mph 29.9 mph N/A   Overcast
11:15 AM 41.0 °F 30.9 °F 32.7 °F 72% 29.76 in 10.0 mi West 24.2 mph 36.8 mph N/A   Overcast
11:35 AM 41.4 °F 31.2 °F 33.4 °F 73% 29.76 in 10.0 mi West 25.3 mph 32.2 mph N/A   Overcast
11:55 AM 41.2 °F 31.4 °F 33.6 °F 74% 29.76 in 10.0 mi West 23.0 mph 36.8 mph N/A   Overcast
12:15 PM 41.9 °F 31.9 °F 33.6 °F 72% 29.77 in 10.0 mi West 25.3 mph 40.3 mph N/A   Overcast
12:35 PM 41.2 °F 31.4 °F 32.7 °F 72% 29.78 in 10.0 mi West 23.0 mph 35.7 mph N/A   Overcast
12:55 PM 40.6 °F 30.4 °F 33.4 °F 75% 29.78 in 10.0 mi West 24.2 mph 36.8 mph N/A   Overcast
1:15 PM 40.1 °F 29.0 °F 34.9 °F 82% 29.77 in 4.0 mi West 27.6 mph 34.5 mph N/A   Haze
1:35 PM 40.5 °F 29.1 °F 33.8 °F 77% 29.76 in 7.0 mi West 29.9 mph 39.1 mph N/A   Overcast
1:55 PM 40.3 °F 29.7 °F 34.9 °F 81% 29.76 in 4.0 mi WNW 25.3 mph 33.4 mph N/A   Haze
2:15 PM 39.6 °F 30.0 °F 35.2 °F 85% 29.76 in 3.0 mi West 19.6 mph 31.1 mph N/A   Haze
2:35 PM 38.7 °F 29.1 °F 34.9 °F 86% 29.77 in 2.5 mi West 18.4 mph 27.6 mph N/A   Light Drizzle
2:55 PM 38.5 °F 28.3 °F 35.1 °F 87% 29.77 in 5.0 mi West 20.7 mph 29.9 mph N/A   Light Drizzle
3:15 PM 39.2 °F 28.7 °F 35.6 °F 87% 29.77 in 4.0 mi West 23.0 mph 29.9 mph 0.01 in   Light Drizzle
3:35 PM 38.7 °F 28.0 °F 34.9 °F 86% 29.77 in 10.0 mi West 23.0 mph 32.2 mph 0.01 in Rain Rain
3:55 PM 37.9 °F 26.8 °F 34.2 °F 86% 29.77 in 10.0 mi West 24.2 mph 29.9 mph 0.02 in   Light Drizzle
4:15 PM 37.8 °F 27.7 °F 34.7 °F 89% 29.77 in 7.0 mi West 19.6 mph 27.6 mph 0.01 in Rain Light Rain
4:35 PM 38.1 °F 27.6 °F 34.3 °F 86% 29.77 in 10.0 mi West 21.9 mph 29.9 mph 0.01 in Rain Light Rain
4:55 PM 38.5 °F 28.1 °F 34.9 °F 87% 29.77 in 10.0 mi West 21.9 mph 31.1 mph 0.02 in   Light Drizzle
5:15 PM 37.9 °F 27.3 °F 34.7 °F 88% 29.77 in 7.0 mi West 21.9 mph 28.8 mph N/A Rain Light Rain
5:35 PM 37.4 °F 26.4 °F 34.2 °F 88% 29.77 in 4.0 mi West 23.0 mph 28.8 mph 0.01 in Rain Light Rain
5:55 PM 37.8 °F 27.7 °F 34.7 °F 89% 29.78 in 4.0 mi West 19.6 mph 29.9 mph 0.01 in Rain Rain
6:15 PM 37.8 °F 27.1 °F 34.7 °F 89% 29.78 in 4.0 mi West 21.9 mph 27.6 mph 0.01 in Rain Rain
6:35 PM 37.8 °F 26.8 °F 34.3 °F 87% 29.78 in 5.0 mi WNW 23.0 mph 31.1 mph 0.02 in Rain Light Rain
6:55 PM 37.4 °F 27.2 °F 34.0 °F 87% 29.78 in 7.0 mi West 19.6 mph 32.2 mph 0.02 in   Light Drizzle
7:15 PM 37.4 °F 26.9 °F 34.2 °F 88% 29.78 in 5.0 mi West 20.7 mph 26.5 mph 0.01 in   Light Drizzle
7:35 PM 37.4 °F 25.9 °F 34.3 °F 89% 29.78 in 7.0 mi WNW 25.3 mph 33.4 mph 0.02 in Rain Light Rain
7:55 PM 37.9 °F 26.6 °F 34.7 °F 88% 29.79 in 7.0 mi WNW 25.3 mph 36.8 mph 0.04 in Rain Light Rain
8:15 PM 38.3 °F 27.3 °F 35.2 °F 89% 29.79 in 10.0 mi WNW 24.2 mph 29.9 mph 0.01 in Rain Light Rain
8:35 PM 38.7 °F 27.8 °F 35.6 °F 89% 29.80 in 5.0 mi WNW 24.2 mph 33.4 mph 0.01 in   Light Drizzle
8:55 PM 38.7 °F 27.5 °F 35.4 °F 88% 29.81 in 7.0 mi WNW 25.3 mph 34.5 mph 0.02 in Rain Rain
9:15 PM 38.7 °F 27.8 °F 35.2 °F 87% 29.81 in 10.0 mi WNW 24.2 mph 33.4 mph N/A   Light Drizzle
9:35 PM 38.8 °F 28.0 °F 35.6 °F 88% 29.82 in 7.0 mi NW 24.2 mph 35.7 mph 0.01 in   Light Drizzle
9:55 PM 39.2 °F 28.0 °F 35.6 °F 87% 29.83 in 5.0 mi NW 26.5 mph 35.7 mph 0.01 in   Light Drizzle
10:15 PM 39.2 °F 29.0 °F 36.0 °F 88% 29.83 in 5.0 mi NW 21.9 mph 28.8 mph 0.01 in   Drizzle
10:35 PM 39.2 °F 29.8 °F 36.1 °F 89% 29.84 in 4.0 mi WNW 18.4 mph 26.5 mph 0.01 in Rain Light Rain
10:55 PM 39.2 °F 30.5 °F 36.5 °F 90% 29.84 in 5.0 mi NW 16.1 mph - 0.02 in Rain Rain
11:15 PM 39.7 °F 31.2 °F 37.0 °F 90% 29.84 in 7.0 mi NW 16.1 mph 21.9 mph 0.01 in   Light Drizzle
11:35 PM 41.0 °F 32.2 °F 38.3 °F 90% 29.85 in 10.0 mi NW 18.4 mph 21.9 mph 0.01 in   Overcast
11:55 PM 41.4 °F 32.4 °F 37.8 °F 87% 29.86 in 10.0 mi NNW 19.6 mph 28.8 mph 0.01 in   Overcast